Back to Top

Language: 

My Weather Underground Personal Weather Station Historical Data with Graphs...

Delerius Weather Station Historical Data
Daily Summary for May 14, 2017 Units:  Metric    English   Both
« Previous Day
Next Day »
Daily Weekly Monthly Yearly Custom
  High: Low: Average:
Temperature: 19.3 °C 8.7 °C 13.9 °C
Dew Point: 10.2 °C 4.4 °C 7.7 °C
Humidity: 95 % 39 % 69 %
Wind Speed: 22.5 km/h 0 km/h 9 km/h
Wind Gust: 38.6 km/h - -
Wind:- - SW
Pressure: 1021.6 hPa 1008.4 hPa -
Precipitation: 2.03 mm    
Historical Graphs
 
 
Tabular Data for May 14, 2017
Time Temperature Dew Point Pressure Wind Wind Speed Wind Gust Humidity Rainfall Rate (Hourly) solar Conditions
00:02 11.7 °C 7.2 °C 1008.4 hPa SSE 9.7 km/h 14.5 km/h 74 % 0 mm 0 W/m2
00:07 11.7 °C 7.2 °C 1008.4 hPa SSE 9.7 km/h 14.5 km/h 74 % 0 mm 0 W/m2
00:12 11.7 °C 7.2 °C 1008.4 hPa SSE 8 km/h 14.5 km/h 74 % 0 mm 0 W/m2
00:17 11.6 °C 7.1 °C 1008.4 hPa SSE 8 km/h 16.1 km/h 74 % 0 mm 0 W/m2
00:22 11.6 °C 7.1 °C 1008.7 hPa SSE 9.7 km/h 16.1 km/h 74 % 0 mm 0 W/m2
00:27 11.6 °C 7.1 °C 1008.7 hPa SSE 9.7 km/h 16.1 km/h 74 % 0 mm 0 W/m2
00:31 11.7 °C 7.2 °C 1008.7 hPa South 9.7 km/h 17.7 km/h 74 % 0 mm 0 W/m2
00:36 11.7 °C 7.2 °C 1008.7 hPa South 8 km/h 17.7 km/h 74 % 0 mm 0 W/m2
00:42 11.7 °C 7.2 °C 1008.7 hPa South 6.4 km/h 12.9 km/h 74 % 0 mm 0 W/m2
00:46 11.7 °C 7.2 °C 1008.7 hPa South 8 km/h 12.9 km/h 74 % 0 mm 0 W/m2
00:51 11.7 °C 7.2 °C 1008.7 hPa South 8 km/h 14.5 km/h 74 % 0 mm 0 W/m2
00:56 11.7 °C 7.2 °C 1008.7 hPa South 8 km/h 16.1 km/h 74 % 0 mm 0 W/m2
01:01 11.8 °C 7.3 °C 1008.7 hPa South 8 km/h 16.1 km/h 74 % 0 mm 0 W/m2
01:07 11.8 °C 7.3 °C 1008.7 hPa South 6.4 km/h 12.9 km/h 74 % 0 mm 0 W/m2
01:12 11.9 °C 7.4 °C 1008.7 hPa South 6.4 km/h 12.9 km/h 74 % 0 mm 0 W/m2
01:17 11.9 °C 7.4 °C 1008.7 hPa South 6.4 km/h 11.3 km/h 74 % 0 mm 0 W/m2
01:22 11.9 °C 7.4 °C 1008.7 hPa South 6.4 km/h 11.3 km/h 74 % 0 mm 0 W/m2
01:27 12 °C 7.5 °C 1008.7 hPa South 6.4 km/h 12.9 km/h 74 % 0 mm 0 W/m2
01:32 12 °C 7.7 °C 1008.7 hPa SSE 8 km/h 14.5 km/h 75 % 0 mm 0 W/m2
01:37 12 °C 7.9 °C 1008.7 hPa SSE 8 km/h 14.5 km/h 76 % 0 mm 0 W/m2
01:42 12 °C 7.9 °C 1008.7 hPa SSE 8 km/h 12.9 km/h 76 % 0 mm 0 W/m2
01:47 11.9 °C 7.8 °C 1008.7 hPa SSE 8 km/h 12.9 km/h 76 % 0 mm 0 W/m2
01:52 11.9 °C 7.8 °C 1008.7 hPa SSE 8 km/h 12.9 km/h 76 % 0 mm 0 W/m2
01:57 12 °C 8.1 °C 1008.7 hPa SSE 8 km/h 16.1 km/h 77 % 0 mm 0 W/m2
02:02 12 °C 8.3 °C 1008.7 hPa South 8 km/h 16.1 km/h 78 % 0 mm 0 W/m2
02:07 12 °C 8.3 °C 1008.7 hPa South 9.7 km/h 16.1 km/h 78 % 0 mm 0 W/m2
02:12 12 °C 8.4 °C 1008.7 hPa South 9.7 km/h 16.1 km/h 79 % 0 mm 0 W/m2
02:17 12 °C 8.4 °C 1008.7 hPa SSE 9.7 km/h 16.1 km/h 79 % 0 mm 0 W/m2
02:22 12 °C 8.4 °C 1008.7 hPa SSE 9.7 km/h 19.3 km/h 79 % 0 mm 0 W/m2
02:27 12 °C 8.7 °C 1008.7 hPa South 9.7 km/h 19.3 km/h 80 % 0 mm 0 W/m2
02:32 12 °C 8.7 °C 1008.7 hPa South 9.7 km/h 16.1 km/h 80 % 0 mm 0 W/m2
02:37 12.1 °C 8.8 °C 1008.7 hPa South 9.7 km/h 20.9 km/h 80 % 0 mm 0 W/m2
02:42 12.1 °C 8.9 °C 1008.7 hPa SSW 8 km/h 20.9 km/h 81 % 0 mm 0 W/m2
02:43 12.1 °C 8.8 °C 1008.7 hPa South 8 km/h 17.7 km/h 80 % 0 mm 0 W/m2
02:48 12 °C 8.8 °C 1008.7 hPa South 8 km/h 19.3 km/h 81 % 0 mm 0 W/m2
02:53 12.1 °C 8.9 °C 1009 hPa South 6.4 km/h 19.3 km/h 81 % 0 mm 0 W/m2
02:58 12 °C 8.8 °C 1009 hPa South 6.4 km/h 17.7 km/h 81 % 0 mm 0 W/m2
03:03 12 °C 8.8 °C 1009 hPa SSW 9.7 km/h 17.7 km/h 81 % 0 mm 0 W/m2
03:08 12 °C 8.8 °C 1009 hPa SSW 9.7 km/h 17.7 km/h 81 % 0 mm 0 W/m2
03:13 12 °C 8.8 °C 1009 hPa SSW 9.7 km/h 20.9 km/h 81 % 0 mm 0 W/m2
03:18 12 °C 9 °C 1009 hPa SSW 11.3 km/h 20.9 km/h 82 % 0 mm 0 W/m2
03:23 11.9 °C 9.1 °C 1009 hPa SSW 9.7 km/h 19.3 km/h 83 % 0 mm 0 W/m2
03:28 11.8 °C 9.2 °C 1009 hPa SSW 9.7 km/h 17.7 km/h 84 % 0.25 mm 0 W/m2
03:33 11.7 °C 9.3 °C 1009 hPa South 9.7 km/h 19.3 km/h 85 % 0.25 mm 0 W/m2
03:38 11.5 °C 9.2 °C 1009 hPa SSW 9.7 km/h 19.3 km/h 86 % 0.51 mm 0 W/m2
03:43 11.3 °C 9.2 °C 1009 hPa SSW 11.3 km/h 17.7 km/h 87 % 0.51 mm 0 W/m2
03:49 11.2 °C 9.3 °C 1009 hPa SSW 9.7 km/h 17.7 km/h 88 % 0.76 mm 0 W/m2
03:54 11.2 °C 9.4 °C 1009 hPa SSW 6.4 km/h 17.7 km/h 89 % 0.76 mm 0 W/m2
03:59 11.1 °C 9.5 °C 1009 hPa SSW 4.8 km/h 12.9 km/h 90 % 1.02 mm 0 W/m2
04:04 11.1 °C 9.5 °C 1009 hPa SSW 3.2 km/h 9.7 km/h 90 % 1.02 mm 0 W/m2
04:09 11 °C 9.6 °C 1009 hPa SSW 3.2 km/h 12.9 km/h 91 % 1.02 mm 0 W/m2
04:14 11 °C 9.6 °C 1009.4 hPa SSW 4.8 km/h 12.9 km/h 91 % 1.02 mm 0 W/m2
04:19 10.9 °C 9.5 °C 1009.4 hPa SSW 4.8 km/h 12.9 km/h 91 % 1.27 mm 0 W/m2
04:24 10.9 °C 9.7 °C 1009.4 hPa South 3.2 km/h 11.3 km/h 92 % 1.02 mm 0 W/m2
04:29 10.9 °C 9.7 °C 1009.4 hPa South 1.6 km/h 8 km/h 92 % 1.02 mm 0 W/m2
04:34 10.9 °C 9.7 °C 1009.4 hPa South 1.6 km/h 8 km/h 92 % 1.02 mm 0 W/m2
04:39 10.9 °C 9.7 °C 1009.4 hPa Calm   8 km/h 92 % 1.27 mm 0 W/m2
04:40 10.9 °C 9.7 °C 1009.4 hPa Calm   9.7 km/h 92 % 1.27 mm 0 W/m2
04:45 10.9 °C 9.7 °C 1009.7 hPa SSE 1.6 km/h 9.7 km/h 92 % 1.02 mm 0 W/m2
04:50 10.9 °C 9.8 °C 1009.7 hPa SSE 1.6 km/h 9.7 km/h 93 % 0.76 mm 0 W/m2
04:55 10.9 °C 9.8 °C 1009.7 hPa Calm   6.4 km/h 93 % 0.76 mm 0 W/m2
05:00 10.9 °C 9.8 °C 1009.7 hPa SSE 1.6 km/h 8 km/h 93 % 0.51 mm 0 W/m2
05:05 10.9 °C 9.8 °C 1009.7 hPa South 3.2 km/h 8 km/h 93 % 0.51 mm 0 W/m2
05:06 10.9 °C 9.8 °C 1009.7 hPa South 3.2 km/h 8 km/h 93 % 0.76 mm 0 W/m2
05:11 10.9 °C 9.8 °C 1009.7 hPa SSW 3.2 km/h 8 km/h 93 % 0.76 mm 0 W/m2
05:16 10.9 °C 9.8 °C 1009.7 hPa SSW 3.2 km/h 8 km/h 93 % 0.51 mm 0 W/m2
05:21 10.9 °C 9.9 °C 1009.7 hPa SSW 1.6 km/h 8 km/h 94 % 0.51 mm 0 W/m2
05:26 10.9 °C 9.9 °C 1009.7 hPa SSW 3.2 km/h 9.7 km/h 94 % 0.51 mm 5 W/m2
05:28 10.9 °C 9.9 °C 1009.7 hPa SSW 3.2 km/h 9.7 km/h 94 % 0.76 mm 5 W/m2
05:33 10.9 °C 9.9 °C 1009.7 hPa SSW 3.2 km/h 9.7 km/h 94 % 0.51 mm 7 W/m2
05:38 10.9 °C 9.9 °C 1010 hPa SSW 3.2 km/h 8 km/h 94 % 0.51 mm 5 W/m2
05:43 10.9 °C 9.9 °C 1010 hPa SSW 3.2 km/h 8 km/h 94 % 0.51 mm 7 W/m2
05:48 10.9 °C 9.9 °C 1010 hPa SSW 1.6 km/h 8 km/h 94 % 0.51 mm 7 W/m2
05:53 10.9 °C 9.9 °C 1010 hPa SSW 1.6 km/h 8 km/h 94 % 0.51 mm 0 W/m2
05:58 10.9 °C 9.9 °C 1010.4 hPa SSW 1.6 km/h 6.4 km/h 94 % 0.51 mm 0 W/m2
06:04 10.9 °C 9.9 °C 1010.4 hPa SSW 1.6 km/h 6.4 km/h 94 % 0.51 mm 5 W/m2
06:09 10.9 °C 9.9 °C 1010.4 hPa SSW 1.6 km/h 6.4 km/h 94 % 0.25 mm 11 W/m2
06:14 10.8 °C 9.9 °C 1010.4 hPa SSW 1.6 km/h 8 km/h 94 % 0.25 mm 14 W/m2
06:19 10.8 °C 10.1 °C 1010.4 hPa SSW 1.6 km/h 8 km/h 95 % 0.25 mm 18 W/m2
06:24 10.8 °C 10.1 °C 1010.4 hPa Calm   3.2 km/h 95 % 0.25 mm 26 W/m2
06:29 10.8 °C 10.1 °C 1010.7 hPa SSW 1.6 km/h 6.4 km/h 95 % 0 mm 30 W/m2
06:34 10.7 °C 9.9 °C 1010.7 hPa SSW 1.6 km/h 6.4 km/h 95 % 0 mm 26 W/m2
06:39 10.7 °C 9.9 °C 1010.7 hPa Calm   6.4 km/h 95 % 0 mm 32 W/m2
06:44 10.7 °C 9.8 °C 1010.7 hPa SW 1.6 km/h 9.7 km/h 94 % 0 mm 35 W/m2
06:49 10.6 °C 9.7 °C 1011.1 hPa West 4.8 km/h 12.9 km/h 94 % 0 mm 44 W/m2
06:54 10.6 °C 9.7 °C 1011.1 hPa West 8 km/h 14.5 km/h 94 % 0 mm 69 W/m2
06:59 10.5 °C 9.6 °C 1011.1 hPa West 9.7 km/h 14.5 km/h 94 % 0 mm 56 W/m2
07:04 10.5 °C 9.6 °C 1011.4 hPa West 9.7 km/h 14.5 km/h 94 % 0 mm 46 W/m2
07:09 10.5 °C 9.4 °C 1011.4 hPa West 9.7 km/h 16.1 km/h 93 % 0 mm 42 W/m2
07:14 10.5 °C 9.3 °C 1011.7 hPa West 11.3 km/h 19.3 km/h 92 % 0 mm 39 W/m2
07:19 10.5 °C 9.3 °C 1011.7 hPa West 11.3 km/h 19.3 km/h 92 % 0 mm 33 W/m2
07:24 10.6 °C 9.2 °C 1011.4 hPa West 8 km/h 17.7 km/h 91 % 0 mm 32 W/m2
07:29 10.6 °C 9.2 °C 1011.7 hPa West 4.8 km/h 12.9 km/h 91 % 0 mm 37 W/m2
07:35 10.6 °C 9.2 °C 1011.4 hPa West 3.2 km/h 11.3 km/h 91 % 0 mm 53 W/m2
07:40 10.6 °C 9.2 °C 1011.4 hPa Calm   8 km/h 91 % 0 mm 56 W/m2
07:45 10.6 °C 9.2 °C 1011.7 hPa Calm   8 km/h 91 % 0 mm 88 W/m2
07:50 10.7 °C 9.3 °C 1011.7 hPa Calm   1.6 km/h 91 % 0 mm 114 W/m2
07:55 10.8 °C 9.6 °C 1012.1 hPa West 1.6 km/h 8 km/h 92 % 0 mm 135 W/m2
08:00 10.8 °C 9.6 °C 1012.1 hPa West 3.2 km/h 9.7 km/h 92 % 0 mm 121 W/m2
08:05 10.8 °C 9.4 °C 1012.1 hPa WSW 4.8 km/h 12.9 km/h 91 % 0 mm 121 W/m2
08:10 10.9 °C 9.5 °C 1012.1 hPa WSW 3.2 km/h 12.9 km/h 91 % 0 mm 135 W/m2
08:15 11 °C 9.4 °C 1012.1 hPa WSW 1.6 km/h 6.4 km/h 90 % 0 mm 176 W/m2
08:20 11.1 °C 9.5 °C 1012.4 hPa West 1.6 km/h 6.4 km/h 90 % 0 mm 301 W/m2
08:25 11.3 °C 9.7 °C 1012.4 hPa West 1.6 km/h 6.4 km/h 90 % 0 mm 309 W/m2
08:30 11.6 °C 10 °C 1012.4 hPa WNW 1.6 km/h 12.9 km/h 90 % 0 mm 309 W/m2
08:35 11.8 °C 9.7 °C 1012.8 hPa West 4.8 km/h 12.9 km/h 87 % 0 mm 462 W/m2
08:40 12.1 °C 9.8 °C 1012.8 hPa WSW 8 km/h 16.1 km/h 86 % 0 mm 464 W/m2
08:45 12.4 °C 10.1 °C 1012.8 hPa WSW 9.7 km/h 16.1 km/h 86 % 0 mm 461 W/m2
08:50 12.8 °C 10.2 °C 1012.8 hPa West 9.7 km/h 17.7 km/h 84 % 0 mm 475 W/m2
08:55 13.2 °C 10.2 °C 1012.8 hPa West 8 km/h 19.3 km/h 82 % 0 mm 513 W/m2
09:00 13.3 °C 9.7 °C 1013.1 hPa West 11.3 km/h 24.1 km/h 79 % 0 mm 524 W/m2
09:05 13.4 °C 9.8 °C 1013.1 hPa West 12.9 km/h 24.1 km/h 79 % 0 mm 548 W/m2
09:10 13.5 °C 9.3 °C 1013.1 hPa West 14.5 km/h 25.7 km/h 76 % 0 mm 571 W/m2
09:15 13.6 °C 9.1 °C 1013.1 hPa West 16.1 km/h 25.7 km/h 74 % 0 mm 568 W/m2
09:20 13.7 °C 8.9 °C 1013.1 hPa West 16.1 km/h 29 km/h 73 % 0 mm 582 W/m2
09:25 13.8 °C 8.8 °C 1013.4 hPa West 17.7 km/h 30.6 km/h 72 % 0 mm 596 W/m2
09:30 13.9 °C 8.5 °C 1013.4 hPa West 19.3 km/h 30.6 km/h 70 % 0 mm 628 W/m2
09:35 14.1 °C 8.9 °C 1013.4 hPa West 19.3 km/h 30.6 km/h 71 % 0 mm 649 W/m2
09:41 14.2 °C 8.8 °C 1013.4 hPa West 17.7 km/h 33.8 km/h 70 % 0 mm 141 W/m2
09:46 14.2 °C 8.8 °C 1013.4 hPa West 17.7 km/h 33.8 km/h 70 % 0 mm 141 W/m2
09:51 14.3 °C 8.9 °C 1013.8 hPa West 17.7 km/h 32.2 km/h 70 % 0 mm 701 W/m2
09:56 14.6 °C 9 °C 1013.8 hPa West 17.7 km/h 25.7 km/h 69 % 0 mm 744 W/m2
10:01 14.7 °C 8.8 °C 1013.8 hPa West 17.7 km/h 25.7 km/h 68 % 0 mm 165 W/m2
10:06 14.8 °C 9.2 °C 1013.8 hPa West 17.7 km/h 30.6 km/h 69 % 0 mm 717 W/m2
10:11 14.9 °C 9.1 °C 1013.8 hPa West 17.7 km/h 30.6 km/h 68 % 0 mm 754 W/m2
10:16 15.1 °C 9 °C 1014.1 hPa West 17.7 km/h 30.6 km/h 67 % 0 mm 745 W/m2
10:21 15.2 °C 8.9 °C 1014.1 hPa West 17.7 km/h 29 km/h 66 % 0 mm 807 W/m2
10:26 15.2 °C 8.7 °C 1014.1 hPa West 17.7 km/h 30.6 km/h 65 % 0 mm 130 W/m2
10:31 15.2 °C 8.9 °C 1014.1 hPa West 17.7 km/h 30.6 km/h 66 % 0 mm 788 W/m2
10:32 15.1 °C 8.8 °C 1014.1 hPa West 17.7 km/h 30.6 km/h 66 % 0 mm 788 W/m2
10:37 15.4 °C 9.1 °C 1014.4 hPa West 16.1 km/h 32.2 km/h 66 % 0 mm 849 W/m2
10:42 15.6 °C 8.8 °C 1014.4 hPa WSW 17.7 km/h 32.2 km/h 64 % 0 mm 830 W/m2
10:47 15.7 °C 8.7 °C 1014.4 hPa WSW 20.9 km/h 35.4 km/h 63 % 0 mm 860 W/m2
10:52 16 °C 8.7 °C 1014.4 hPa West 20.9 km/h 35.4 km/h 62 % 0 mm 949 W/m2
10:57 16.1 °C 8.8 °C 1014.4 hPa West 19.3 km/h 33.8 km/h 62 % 0 mm 202 W/m2
11:02 15.7 °C 8.2 °C 1014.8 hPa West 17.7 km/h 32.2 km/h 61 % 0 mm 220 W/m2
11:07 15.6 °C 8.1 °C 1014.8 hPa West 19.3 km/h 35.4 km/h 61 % 0 mm 893 W/m2
11:12 15.7 °C 8.4 °C 1014.8 hPa WSW 19.3 km/h 35.4 km/h 62 % 0 mm 875 W/m2
11:17 16 °C 8.2 °C 1014.8 hPa WSW 16.1 km/h 33.8 km/h 60 % 0 mm 904 W/m2
11:22 16 °C 7.7 °C 1014.8 hPa West 17.7 km/h 33.8 km/h 58 % 0 mm 893 W/m2
11:27 16.2 °C 8.2 °C 1014.8 hPa West 17.7 km/h 33.8 km/h 59 % 0 mm 313 W/m2
11:32 16.3 °C 8 °C 1015.1 hPa West 14.5 km/h 33.8 km/h 58 % 0 mm 979 W/m2
11:37 16.5 °C 8.4 °C 1015.1 hPa WSW 12.9 km/h 22.5 km/h 59 % 0 mm 932 W/m2
11:42 16.8 °C 8.7 °C 1014.8 hPa WSW 12.9 km/h 22.5 km/h 59 % 0 mm 949 W/m2
11:47 17.2 °C 8.8 °C 1015.1 hPa WSW 12.9 km/h 24.1 km/h 58 % 0 mm 981 W/m2
11:52 17.4 °C 8.3 °C 1015.1 hPa West 12.9 km/h 30.6 km/h 55 % 0 mm 209 W/m2
11:57 17.2 °C 8.3 °C 1015.1 hPa West 14.5 km/h 30.6 km/h 56 % 0 mm 262 W/m2
12:03 16.9 °C 8.1 °C 1015.1 hPa West 12.9 km/h 29 km/h 56 % 0 mm 387 W/m2
12:08 16.8 °C 8.2 °C 1015.1 hPa WSW 14.5 km/h 29 km/h 57 % 0 mm 1162 W/m2
12:13 16.9 °C 8.1 °C 1015.5 hPa WSW 14.5 km/h 32.2 km/h 56 % 0 mm 1032 W/m2
12:18 17.1 °C 8 °C 1015.1 hPa WSW 16.1 km/h 32.2 km/h 55 % 0 mm 211 W/m2
12:23 16.8 °C 7.9 °C 1015.5 hPa WSW 16.1 km/h 32.2 km/h 56 % 0 mm 241 W/m2
12:28 16.7 °C 8.1 °C 1015.5 hPa West 16.1 km/h 32.2 km/h 57 % 0 mm 297 W/m2
12:33 16.7 °C 8.7 °C 1015.8 hPa West 16.1 km/h 33.8 km/h 59 % 0 mm 1165 W/m2
12:38 17.1 °C 8.5 °C 1015.8 hPa West 14.5 km/h 37 km/h 57 % 0 mm 585 W/m2
12:43 17.2 °C 7.8 °C 1015.8 hPa WSW 16.1 km/h 37 km/h 54 % 0 mm 522 W/m2
12:48 16.8 °C 6.9 °C 1016.1 hPa WSW 20.9 km/h 37 km/h 52 % 0 mm 550 W/m2
12:53 16.6 °C 7 °C 1016.1 hPa WSW 20.9 km/h 37 km/h 53 % 0 mm 432 W/m2
12:58 16.6 °C 7 °C 1016.1 hPa WSW 17.7 km/h 32.2 km/h 53 % 0 mm 960 W/m2
13:03 16.9 °C 7 °C 1016.1 hPa WSW 16.1 km/h 25.7 km/h 52 % 0 mm 937 W/m2
13:08 17.3 °C 7.6 °C 1016.1 hPa WSW 14.5 km/h 25.7 km/h 53 % 0 mm 991 W/m2
13:13 17.5 °C 7.6 °C 1016.1 hPa WSW 14.5 km/h 30.6 km/h 52 % 0 mm 290 W/m2
13:18 17.5 °C 7.8 °C 1016.1 hPa WSW 16.1 km/h 30.6 km/h 53 % 0 mm 858 W/m2
13:23 17.4 °C 8.3 °C 1016.5 hPa West 17.7 km/h 30.6 km/h 55 % 0 mm 241 W/m2
13:28 17.1 °C 8.2 °C 1016.5 hPa WNW 16.1 km/h 29 km/h 56 % 0 mm 325 W/m2
13:33 17.1 °C 8 °C 1016.1 hPa WNW 16.1 km/h 29 km/h 55 % 0 mm 262 W/m2
13:38 16.9 °C 7.3 °C 1016.5 hPa West 16.1 km/h 30.6 km/h 53 % 0 mm 211 W/m2
13:39 16.8 °C 7.2 °C 1016.5 hPa West 16.1 km/h 30.6 km/h 53 % 0 mm 220 W/m2
13:44 16.6 °C 7 °C 1016.5 hPa WSW 16.1 km/h 30.6 km/h 53 % 0 mm 264 W/m2
13:49 16.4 °C 7.3 °C 1016.5 hPa WSW 14.5 km/h 24.1 km/h 55 % 0 mm 383 W/m2
13:54 16.7 °C 7.9 °C 1016.5 hPa WSW 12.9 km/h 24.1 km/h 56 % 0 mm 244 W/m2
13:59 16.9 °C 7.8 °C 1016.5 hPa WSW 11.3 km/h 20.9 km/h 55 % 0 mm 302 W/m2
14:04 17.1 °C 8 °C 1016.5 hPa WSW 9.7 km/h 17.7 km/h 55 % 0 mm 928 W/m2
14:09 17.3 °C 7.1 °C 1016.5 hPa West 9.7 km/h 17.7 km/h 51 % 0 mm 151 W/m2
14:14 17.6 °C 6.8 °C 1016.5 hPa WNW 11.3 km/h 24.1 km/h 49 % 0 mm 928 W/m2
14:19 18.2 °C 6.1 °C 1016.5 hPa West 16.1 km/h 35.4 km/h 45 % 0 mm 909 W/m2
14:24 18.4 °C 5.6 °C 1016.5 hPa West 17.7 km/h 35.4 km/h 43 % 0 mm 921 W/m2
14:29 18.7 °C 5.5 °C 1016.5 hPa West 16.1 km/h 29 km/h 42 % 0 mm 958 W/m2
14:34 19.2 °C 5.9 °C 1016.5 hPa West 12.9 km/h 24.1 km/h 42 % 0 mm 993 W/m2
14:40 19.3 °C 5.3 °C 1016.5 hPa West 14.5 km/h 24.1 km/h 40 % 0 mm 951 W/m2
14:45 19.3 °C 5.7 °C 1016.5 hPa WSW 14.5 km/h 25.7 km/h 41 % 0 mm 993 W/m2
14:50 19.2 °C 5.6 °C 1016.8 hPa West 14.5 km/h 29 km/h 41 % 0 mm 860 W/m2
14:55 19.3 °C 6.1 °C 1016.8 hPa WSW 14.5 km/h 29 km/h 42 % 0 mm 967 W/m2
15:00 19 °C 5.4 °C 1016.8 hPa WSW 16.1 km/h 29 km/h 41 % 0 mm 285 W/m2
15:05 18.6 °C 5.1 °C 1016.8 hPa WSW 17.7 km/h 29 km/h 41 % 0 mm 316 W/m2
15:10 18.4 °C 4.9 °C 1016.8 hPa West 17.7 km/h 35.4 km/h 41 % 0 mm 246 W/m2
15:15 18.2 °C 5.4 °C 1017.2 hPa West 17.7 km/h 35.4 km/h 43 % 0 mm 970 W/m2
15:20 18.3 °C 5.5 °C 1017.2 hPa WSW 16.1 km/h 30.6 km/h 43 % 0 mm 297 W/m2
15:25 18.4 °C 5.9 °C 1017.2 hPa WSW 16.1 km/h 30.6 km/h 44 % 0 mm 877 W/m2
15:30 18.8 °C 5.3 °C 1017.2 hPa WSW 14.5 km/h 25.7 km/h 41 % 0 mm 882 W/m2
15:35 18.8 °C 5.3 °C 1017.2 hPa SW 16.1 km/h 24.1 km/h 41 % 0 mm 309 W/m2
15:40 18.8 °C 5.6 °C 1017.2 hPa SW 16.1 km/h 24.1 km/h 42 % 0 mm 902 W/m2
15:45 19.1 °C 6.2 °C 1017.2 hPa WSW 14.5 km/h 24.1 km/h 43 % 0 mm 823 W/m2
15:50 19.2 °C 5.3 °C 1017.2 hPa WSW 14.5 km/h 33.8 km/h 40 % 0 mm 153 W/m2
15:55 18.7 °C 4.4 °C 1017.2 hPa West 14.5 km/h 33.8 km/h 39 % 0 mm 227 W/m2
16:00 18.4 °C 4.6 °C 1017.5 hPa WSW 12.9 km/h 30.6 km/h 40 % 0 mm 272 W/m2
16:05 18.4 °C 5.2 °C 1017.5 hPa WSW 14.5 km/h 30.6 km/h 42 % 0 mm 265 W/m2
16:10 18.3 °C 4.8 °C 1017.5 hPa WSW 16.1 km/h 25.7 km/h 41 % 0 mm 214 W/m2
16:15 18.2 °C 5.1 °C 1017.5 hPa West 14.5 km/h 25.7 km/h 42 % 0 mm 802 W/m2
16:20 18.5 °C 5 °C 1017.5 hPa WSW 14.5 km/h 24.1 km/h 41 % 0 mm 726 W/m2
16:25 18.9 °C 5.3 °C 1017.5 hPa WSW 14.5 km/h 29 km/h 41 % 0 mm 691 W/m2
16:30 19 °C 5.1 °C 1017.5 hPa West 14.5 km/h 29 km/h 40 % 0 mm 135 W/m2
16:35 18.7 °C 5.5 °C 1017.5 hPa WSW 11.3 km/h 24.1 km/h 42 % 0 mm 645 W/m2
16:40 18.7 °C 5.5 °C 1017.5 hPa WSW 11.3 km/h 17.7 km/h 42 % 0 mm 619 W/m2
16:45 19 °C 5.4 °C 1017.5 hPa WSW 11.3 km/h 22.5 km/h 41 % 0 mm 603 W/m2
16:48 19.1 °C 5.6 °C 1017.5 hPa WSW 11.3 km/h 22.5 km/h 41 % 0 mm 554 W/m2
16:53 19.2 °C 5.6 °C 1017.5 hPa West 12.9 km/h 22.5 km/h 41 % 0 mm 308 W/m2
16:58 19.3 °C 5 °C 1017.5 hPa West 12.9 km/h 20.9 km/h 39 % 0 mm 675 W/m2
17:03 19.2 °C 4.9 °C 1017.8 hPa West 16.1 km/h 29 km/h 39 % 0 mm 664 W/m2
17:08 18.7 °C 4.4 °C 1017.8 hPa WSW 19.3 km/h 32.2 km/h 39 % 0 mm 213 W/m2
17:13 18.2 °C 4.7 °C 1018.2 hPa WSW 20.9 km/h 33.8 km/h 41 % 0 mm 156 W/m2
17:18 17.3 °C 6.5 °C 1018.2 hPa WSW 22.5 km/h 37 km/h 49 % 0 mm 144 W/m2
17:23 16.5 °C 6.6 °C 1018.2 hPa SW 22.5 km/h 38.6 km/h 52 % 0 mm 118 W/m2
17:28 16.1 °C 6.8 °C 1018.2 hPa SW 20.9 km/h 38.6 km/h 54 % 0 mm 134 W/m2
17:33 15.7 °C 6.7 °C 1018.2 hPa SW 20.9 km/h 37 km/h 55 % 0 mm 149 W/m2
17:38 15.5 °C 6.8 °C 1018.5 hPa WSW 20.9 km/h 37 km/h 56 % 0 mm 142 W/m2
17:43 15.4 °C 6.4 °C 1018.5 hPa WSW 19.3 km/h 37 km/h 55 % 0 mm 135 W/m2
17:48 15.3 °C 6.6 °C 1018.5 hPa SW 16.1 km/h 29 km/h 56 % 0 mm 132 W/m2
17:53 15.2 °C 6.7 °C 1018.5 hPa SW 14.5 km/h 25.7 km/h 57 % 0 mm 135 W/m2
17:58 15.2 °C 6.7 °C 1018.5 hPa SW 12.9 km/h 29 km/h 57 % 0 mm 149 W/m2
18:03 15.2 °C 6.7 °C 1018.5 hPa SW 11.3 km/h 29 km/h 57 % 0 mm 163 W/m2
18:08 15.3 °C 6.6 °C 1018.5 hPa SW 9.7 km/h 19.3 km/h 56 % 0 mm 195 W/m2
18:13 15.5 °C 6.5 °C 1018.5 hPa SW 8 km/h 14.5 km/h 55 % 0 mm 443 W/m2
18:18 15.9 °C 6.6 °C 1018.5 hPa SW 8 km/h 14.5 km/h 54 % 0 mm 487 W/m2
18:23 16.4 °C 6.5 °C 1018.5 hPa SW 9.7 km/h 14.5 km/h 52 % 0 mm 432 W/m2
18:28 16.7 °C 6.8 °C 1018.5 hPa SW 9.7 km/h 16.1 km/h 52 % 0 mm 362 W/m2
18:33 17.1 °C 6.3 °C 1018.5 hPa WSW 9.7 km/h 16.1 km/h 49 % 0 mm 332 W/m2
18:38 17.3 °C 5.9 °C 1018.5 hPa WSW 9.7 km/h 16.1 km/h 47 % 0 mm 322 W/m2
18:40 17.4 °C 5.7 °C 1018.5 hPa WSW 9.7 km/h 16.1 km/h 46 % 0 mm 276 W/m2
18:45 17.3 °C 5.9 °C 1018.5 hPa WSW 9.7 km/h 17.7 km/h 47 % 0 mm 88 W/m2
18:50 17 °C 5.6 °C 1018.5 hPa WSW 9.7 km/h 17.7 km/h 47 % 0 mm 46 W/m2
18:55 16.8 °C 5.7 °C 1018.8 hPa WSW 8 km/h 14.5 km/h 48 % 0 mm 46 W/m2
19:00 16.6 °C 5.8 °C 1018.8 hPa West 8 km/h 16.1 km/h 49 % 0 mm 62 W/m2
19:05 16.3 °C 5.8 °C 1018.8 hPa West 9.7 km/h 19.3 km/h 50 % 0 mm 65 W/m2
19:10 16.1 °C 6.2 °C 1019.2 hPa WSW 11.3 km/h 19.3 km/h 52 % 0 mm 167 W/m2
19:15 16.1 °C 6.2 °C 1019.2 hPa WSW 11.3 km/h 19.3 km/h 52 % 0 mm 60 W/m2
19:20 15.9 °C 6.6 °C 1019.2 hPa WSW 11.3 km/h 20.9 km/h 54 % 0 mm 142 W/m2
19:25 15.8 °C 6.5 °C 1019.2 hPa West 11.3 km/h 20.9 km/h 54 % 0 mm 40 W/m2
19:30 15.7 °C 6.4 °C 1019.2 hPa West 8 km/h 16.1 km/h 54 % 0 mm 35 W/m2
19:35 15.6 °C 6.6 °C 1019.2 hPa West 6.4 km/h 14.5 km/h 55 % 0 mm 58 W/m2
19:40 15.4 °C 6.4 °C 1019.2 hPa West 4.8 km/h 11.3 km/h 55 % 0 mm 44 W/m2
19:45 15.3 °C 6.3 °C 1019.5 hPa West 4.8 km/h 11.3 km/h 55 % 0 mm 62 W/m2
19:50 15.3 °C 6.3 °C 1019.5 hPa West 4.8 km/h 11.3 km/h 55 % 0 mm 49 W/m2
19:55 15.2 °C 6.2 °C 1019.5 hPa West 4.8 km/h 11.3 km/h 55 % 0 mm 47 W/m2
20:00 15.1 °C 6.4 °C 1019.5 hPa West 3.2 km/h 11.3 km/h 56 % 0 mm 49 W/m2
20:05 15.1 °C 6.4 °C 1019.5 hPa WSW 3.2 km/h 8 km/h 56 % 0 mm 56 W/m2
20:10 15 °C 6.8 °C 1019.9 hPa WSW 3.2 km/h 8 km/h 58 % 0 mm 42 W/m2
20:16 14.9 °C 6.9 °C 1019.9 hPa WSW 3.2 km/h 9.7 km/h 59 % 0 mm 33 W/m2
20:21 14.8 °C 7.1 °C 1019.9 hPa SW 3.2 km/h 11.3 km/h 60 % 0 mm 26 W/m2
20:26 14.6 °C 7.2 °C 1019.9 hPa SW 4.8 km/h 11.3 km/h 61 % 0 mm 18 W/m2
20:31 14.5 °C 7.1 °C 1019.9 hPa SW 4.8 km/h 11.3 km/h 61 % 0 mm 12 W/m2
20:36 14.4 °C 7.2 °C 1019.9 hPa SW 3.2 km/h 9.7 km/h 62 % 0 mm 12 W/m2
20:41 14.3 °C 7.1 °C 1019.9 hPa WSW 3.2 km/h 9.7 km/h 62 % 0 mm 9 W/m2
20:42 14.2 °C 7.3 °C 1019.9 hPa WSW 3.2 km/h 9.7 km/h 63 % 0 mm 9 W/m2
20:47 14.1 °C 7.2 °C 1019.9 hPa WSW 1.6 km/h 6.4 km/h 63 % 0 mm 7 W/m2
20:52 14 °C 7.3 °C 1020.2 hPa WSW 1.6 km/h 3.2 km/h 64 % 0 mm 5 W/m2
20:57 13.8 °C 7.3 °C 1020.2 hPa WSW 1.6 km/h 3.2 km/h 65 % 0 mm 0 W/m2
21:02 13.7 °C 7.4 °C 1020.2 hPa Calm   3.2 km/h 66 % 0 mm 0 W/m2
21:07 13.5 °C 7.5 °C 1020.2 hPa Calm   1.6 km/h 67 % 0 mm 0 W/m2
21:12 13.3 °C 7.3 °C 1020.5 hPa Calm   1.6 km/h 67 % 0 mm 0 W/m2
21:17 13.1 °C 7.3 °C 1020.5 hPa Calm     68 % 0 mm 0 W/m2
21:22 12.8 °C 7.1 °C 1020.5 hPa Calm     68 % 0 mm 0 W/m2
21:27 12.6 °C 7.1 °C 1020.5 hPa Calm     69 % 0 mm 0 W/m2
21:32 12.3 °C 7 °C 1020.5 hPa Calm     70 % 0 mm 0 W/m2
21:37 12.2 °C 7.1 °C 1020.5 hPa Calm     71 % 0 mm 0 W/m2
21:42 12 °C 6.9 °C 1020.9 hPa Calm     71 % 0 mm 0 W/m2
21:44 11.9 °C 7 °C 1020.9 hPa Calm     72 % 0 mm 0 W/m2
21:49 11.8 °C 6.9 °C 1020.9 hPa Calm     72 % 0 mm 0 W/m2
21:54 11.6 °C 6.9 °C 1020.9 hPa Calm     73 % 0 mm 0 W/m2
21:59 11.4 °C 6.7 °C 1020.9 hPa Calm     73 % 0 mm 0 W/m2
22:04 11.3 °C 6.8 °C 1020.9 hPa Calm     74 % 0 mm 0 W/m2
22:09 11.1 °C 6.6 °C 1020.9 hPa Calm     74 % 0 mm 0 W/m2
22:14 10.9 °C 6.7 °C 1021.2 hPa Calm     75 % 0 mm 0 W/m2
22:19 10.8 °C 6.7 °C 1021.2 hPa Calm     76 % 0 mm 0 W/m2
22:24 10.6 °C 6.7 °C 1021.2 hPa Calm     77 % 0 mm 0 W/m2
22:29 10.4 °C 6.6 °C 1021.2 hPa Calm     77 % 0 mm 0 W/m2
22:34 10.3 °C 6.6 °C 1020.9 hPa Calm     78 % 0 mm 0 W/m2
22:39 10.1 °C 6.6 °C 1021.2 hPa Calm   3.2 km/h 79 % 0 mm 0 W/m2
22:44 9.9 °C 6.6 °C 1021.2 hPa Calm   3.2 km/h 80 % 0 mm 0 W/m2
22:49 9.8 °C 6.7 °C 1021.2 hPa WSW 1.6 km/h 3.2 km/h 81 % 0 mm 0 W/m2
22:54 9.7 °C 6.6 °C 1021.2 hPa WSW 1.6 km/h 3.2 km/h 81 % 0 mm 0 W/m2
22:59 9.6 °C 6.5 °C 1021.2 hPa WSW 1.6 km/h 3.2 km/h 81 % 0 mm 0 W/m2
23:04 9.6 °C 6.7 °C 1021.2 hPa Calm   3.2 km/h 82 % 0 mm 0 W/m2
23:09 9.6 °C 6.7 °C 1021.2 hPa Calm   3.2 km/h 82 % 0 mm 0 W/m2
23:14 9.5 °C 6.6 °C 1021.6 hPa Calm   1.6 km/h 82 % 0 mm 0 W/m2
23:16 9.5 °C 6.6 °C 1021.2 hPa Calm   1.6 km/h 82 % 0 mm 0 W/m2
23:21 9.4 °C 6.5 °C 1021.6 hPa Calm     82 % 0 mm 0 W/m2
23:26 9.2 °C 6.3 °C 1021.6 hPa Calm     82 % 0 mm 0 W/m2
23:31 9.1 °C 6.2 °C 1021.2 hPa Calm     82 % 0 mm 0 W/m2
23:36 8.9 °C 6.2 °C 1021.2 hPa Calm     83 % 0 mm 0 W/m2
23:41 8.9 °C 6.3 °C 1021.6 hPa Calm   1.6 km/h 84 % 0 mm 0 W/m2
23:46 8.8 °C 6.2 °C 1021.6 hPa Calm   1.6 km/h 84 % 0 mm 0 W/m2
23:51 8.7 °C 6.2 °C 1021.6 hPa Calm     84 % 0 mm 0 W/m2
23:56 8.7 °C 6.3 °C 1021.2 hPa Calm     85 % 0 mm 0 W/m2
Delerius-Weather
Compliments of Weather Underground - 2.25 mb

Data updates at regular intervals.